TimeCDT,TemperatureF,Dew PointF,Humidity,Sea Level PressureIn,VisibilityMPH,Wind Direction,Wind SpeedMPH,Gust SpeedMPH,PrecipitationIn,Events,Conditions,WindDirDegrees,DateUTC
12:08 AM,53.6,53.6,100,29.87,10.0,NW,3.5,-,N/A,,Clear,310,2013-08-07 05:08:00
12:28 AM,53.6,53.6,100,29.87,10.0,Calm,Calm,-,N/A,,Clear,0,2013-08-07 05:28:00
12:48 AM,55.4,53.6,94,29.88,10.0,NW,4.6,-,N/A,,Clear,320,2013-08-07 05:48:00
1:08 AM,55.4,55.4,100,29.87,10.0,NW,4.6,-,N/A,,Clear,310,2013-08-07 06:08:00
1:28 AM,55.4,53.6,94,29.88,10.0,NW,3.5,-,N/A,,Clear,310,2013-08-07 06:28:00
1:48 AM,55.4,53.6,94,29.89,10.0,NW,10.4,-,N/A,,Clear,310,2013-08-07 06:48:00
2:08 AM,53.6,51.8,94,29.89,10.0,NW,5.8,-,N/A,,Clear,320,2013-08-07 07:08:00
2:28 AM,51.8,51.8,100,29.89,10.0,NW,5.8,-,N/A,,Clear,320,2013-08-07 07:28:00
2:48 AM,51.8,50.0,94,29.90,10.0,NNW,4.6,-,N/A,,Clear,330,2013-08-07 07:48:00
3:09 AM,51.8,51.8,100,29.90,10.0,NW,6.9,-,N/A,,Clear,320,2013-08-07 08:09:00
3:28 AM,51.8,48.2,88,29.91,10.0,NNW,4.6,-,N/A,,Clear,330,2013-08-07 08:28:00
3:48 AM,51.8,48.2,88,29.91,10.0,NW,4.6,-,N/A,,Clear,320,2013-08-07 08:48:00
4:09 AM,51.8,48.2,88,29.91,10.0,NNW,4.6,-,N/A,,Clear,340,2013-08-07 09:09:00
4:28 AM,51.8,50.0,94,29.92,10.0,NW,5.8,-,N/A,,Clear,320,2013-08-07 09:28:00
4:48 AM,51.8,50.0,94,29.92,10.0,NNW,5.8,-,N/A,,Clear,330,2013-08-07 09:48:00
5:08 AM,51.8,48.2,88,29.92,10.0,NNW,5.8,-,N/A,,Clear,330,2013-08-07 10:08:00
5:28 AM,51.8,48.2,88,29.92,10.0,NW,5.8,-,N/A,,Clear,320,2013-08-07 10:28:00
5:48 AM,51.8,48.2,88,29.94,10.0,NW,8.1,-,N/A,,Clear,320,2013-08-07 10:48:00
6:08 AM,51.8,48.2,88,29.94,10.0,NNW,6.9,-,N/A,,Clear,330,2013-08-07 11:08:00
6:28 AM,51.8,48.2,88,29.94,10.0,NNW,5.8,-,N/A,,Clear,330,2013-08-07 11:28:00
6:48 AM,51.8,48.2,88,29.95,10.0,NW,5.8,-,N/A,,Scattered Clouds,320,2013-08-07 11:48:00
7:08 AM,53.6,50.0,88,29.95,10.0,NNW,5.8,-,N/A,,Scattered Clouds,330,2013-08-07 12:08:00
7:28 AM,53.6,50.0,88,29.96,10.0,NW,5.8,-,N/A,,Mostly Cloudy,320,2013-08-07 12:28:00
7:48 AM,53.6,50.0,88,29.96,10.0,NW,5.8,-,N/A,,Overcast,310,2013-08-07 12:48:00
8:08 AM,53.6,51.8,94,29.96,10.0,NW,5.8,-,N/A,,Overcast,320,2013-08-07 13:08:00
8:28 AM,53.6,51.8,94,29.97,10.0,NW,5.8,-,N/A,,Overcast,320,2013-08-07 13:28:00
8:48 AM,55.4,51.8,88,29.97,10.0,NW,9.2,-,N/A,,Overcast,320,2013-08-07 13:48:00
9:08 AM,55.4,51.8,88,29.97,10.0,NW,5.8,-,N/A,,Overcast,310,2013-08-07 14:08:00
9:28 AM,57.2,51.8,82,29.98,10.0,NW,6.9,-,N/A,,Overcast,310,2013-08-07 14:28:00
9:48 AM,57.2,51.8,82,29.98,10.0,NW,6.9,-,N/A,,Overcast,310,2013-08-07 14:48:00
10:08 AM,57.2,50.0,77,29.98,10.0,NNW,6.9,-,N/A,,Overcast,330,2013-08-07 15:08:00
10:28 AM,60.8,50.0,68,29.98,10.0,NNW,6.9,-,N/A,,Mostly Cloudy,330,2013-08-07 15:28:00
10:48 AM,62.6,50.0,63,29.99,10.0,NW,9.2,-,N/A,,Scattered Clouds,310,2013-08-07 15:48:00
11:08 AM,62.6,50.0,63,29.99,10.0,NW,11.5,-,N/A,,Clear,310,2013-08-07 16:08:00
11:28 AM,64.4,51.8,64,30.00,10.0,WNW,10.4,-,N/A,,Clear,300,2013-08-07 16:28:00
11:48 AM,64.4,50.0,59,30.00,10.0,WNW,6.9,-,N/A,,Scattered Clouds,290,2013-08-07 16:48:00
12:08 PM,64.4,50.0,59,30.00,10.0,WNW,9.2,-,N/A,,Mostly Cloudy,290,2013-08-07 17:08:00
12:28 PM,64.4,50.0,59,30.00,10.0,WNW,9.2,-,N/A,,Mostly Cloudy,290,2013-08-07 17:28:00
12:48 PM,66.2,48.2,52,30.00,10.0,West,8.1,-,N/A,,Scattered Clouds,260,2013-08-07 17:48:00
1:08 PM,66.2,50.0,56,30.01,10.0,WSW,10.4,-,N/A,,Scattered Clouds,250,2013-08-07 18:08:00
1:28 PM,66.2,50.0,56,30.01,10.0,WSW,9.2,-,N/A,,Mostly Cloudy,250,2013-08-07 18:28:00
1:48 PM,66.2,48.2,52,30.01,10.0,West,9.2,-,N/A,,Scattered Clouds,260,2013-08-07 18:48:00
2:08 PM,66.2,50.0,56,30.01,10.0,West,10.4,-,N/A,,Mostly Cloudy,270,2013-08-07 19:08:00
2:28 PM,66.2,51.8,60,30.01,10.0,WSW,6.9,-,N/A,,Mostly Cloudy,250,2013-08-07 19:28:00
2:48 PM,66.2,50.0,56,30.01,10.0,WSW,9.2,-,N/A,,Mostly Cloudy,250,2013-08-07 19:48:00
3:08 PM,66.2,51.8,60,30.01,10.0,WSW,10.4,-,N/A,,Mostly Cloudy,250,2013-08-07 20:08:00
3:28 PM,66.2,51.8,60,30.01,10.0,West,11.5,-,N/A,,Overcast,260,2013-08-07 20:28:00
3:48 PM,66.2,51.8,60,30.01,10.0,WSW,8.1,-,N/A,,Overcast,250,2013-08-07 20:48:00
4:08 PM,66.2,51.8,60,30.00,10.0,WSW,8.1,-,N/A,,Mostly Cloudy,250,2013-08-07 21:08:00
4:28 PM,68.0,51.8,56,30.00,10.0,WSW,9.2,-,N/A,,Mostly Cloudy,240,2013-08-07 21:28:00
4:48 PM,66.2,53.6,64,30.00,10.0,SW,8.1,-,N/A,,Mostly Cloudy,230,2013-08-07 21:48:00
5:08 PM,66.2,51.8,60,30.00,10.0,WSW,8.1,-,N/A,,Overcast,250,2013-08-07 22:08:00
5:28 PM,64.4,51.8,64,30.01,10.0,WSW,8.1,-,N/A,,Scattered Clouds,250,2013-08-07 22:28:00
5:48 PM,64.4,51.8,64,30.00,10.0,WSW,6.9,-,N/A,,Mostly Cloudy,250,2013-08-07 22:48:00
6:08 PM,66.2,51.8,60,30.00,10.0,West,8.1,-,N/A,,Scattered Clouds,260,2013-08-07 23:08:00
6:28 PM,64.4,48.2,56,30.00,10.0,West,8.1,-,N/A,,Mostly Cloudy,260,2013-08-07 23:28:00
6:48 PM,64.4,50.0,59,30.00,10.0,West,8.1,-,N/A,,Overcast,280,2013-08-07 23:48:00
7:08 PM,62.6,50.0,63,30.00,10.0,WNW,8.1,-,N/A,Rain,Light Rain,300,2013-08-08 00:08:00
7:28 PM,62.6,50.0,63,30.01,10.0,West,8.1,-,N/A,,Overcast,280,2013-08-08 00:28:00
7:48 PM,62.6,50.0,63,30.01,10.0,West,9.2,-,N/A,,Overcast,270,2013-08-08 00:48:00
8:08 PM,62.6,50.0,63,30.00,10.0,West,8.1,-,N/A,,Overcast,270,2013-08-08 01:08:00
8:28 PM,62.6,51.8,68,30.00,10.0,West,8.1,-,N/A,,Overcast,260,2013-08-08 01:28:00
8:48 PM,60.8,51.8,72,30.01,10.0,West,9.2,-,N/A,,Mostly Cloudy,270,2013-08-08 01:48:00
9:08 PM,60.8,50.0,68,30.01,10.0,West,5.8,-,N/A,,Scattered Clouds,280,2013-08-08 02:08:00
9:28 PM,60.8,51.8,72,30.01,10.0,WNW,6.9,-,N/A,,Scattered Clouds,300,2013-08-08 02:28:00
9:48 PM,60.8,51.8,72,30.01,10.0,WNW,5.8,-,N/A,,Scattered Clouds,300,2013-08-08 02:48:00
10:08 PM,60.8,51.8,72,30.02,10.0,WNW,8.1,-,N/A,,Clear,300,2013-08-08 03:08:00
10:28 PM,59.0,51.8,77,30.02,10.0,NW,5.8,-,N/A,,Mostly Cloudy,310,2013-08-08 03:28:00
10:48 PM,59.0,50.0,72,30.02,10.0,NW,5.8,-,N/A,,Overcast,320,2013-08-08 03:48:00
11:08 PM,59.0,50.0,72,30.02,10.0,NW,3.5,-,N/A,,Overcast,320,2013-08-08 04:08:00
11:28 PM,59.0,50.0,72,30.02,10.0,NW,3.5,-,N/A,,Overcast,310,2013-08-08 04:28:00
11:48 PM,57.2,48.2,72,30.03,10.0,NW,4.6,-,N/A,,Overcast,310,2013-08-08 04:48:00